User: anonymous   Login
Location: Unspecified
(0.0000°N, 0.0000°E)
Time: 11:53:13
(UTC+00:00)
Language:

USA 264 DEB - Orbit

View from above orbital plane
View from above orbital plane
View from above satellite
View from above satellite

Ground track
Ground track

The orbit data is extracted from the following two-line orbital elements,

1 40981U 15058R   17288.81499149 0.00000000  00000-0  00000-0 0    05
2 40981  63.4409 214.0542 0063002 175.5863 184.4137 13.40736458    03
Epoch (UTC): 15 October 2017 19:33:35
Eccentricity: 0.0063002
inclination: 63.4409°
perigee height: 1059 km
apogee height: 1153 km
right ascension of ascending node: 214.0542°
argument of perigee: 175.5863°
revolutions per day: 13.40736458
mean anomaly at epoch: 184.4137°
orbit number at epoch: 0

The dashed part of the orbit path shows where the satellite is in the earth's shadow,  

DLR